Hourly Weather Roundup
Issued by NWS Central Illinois

Home | Current Version | Previous Version | Text Only | Print | Product List | Glossary On
Versions: 1 2 3 4 5 6 7 8 9 10 11 12 13 14 15 16 17 18 19 20 21 22 23 24 25 26 27 28 29 30 31 32 33 34 35 36 37 38 39 40 41 42 43 44 45 46 47 48 49 50
000
NZUS43 KILX 290310
HWRILX

AREA WEATHER ROUNDUP
NATIONAL WEATHER SERVICE, LINCOLN IL
1000 PM CDT SUN AUG 28 2016


CITY           SKY/WX    TMP DP  RH WIND       PRES   REMARKS
BLOOMINGTON    CLEAR     70  69  97 NE8       30.20R
CHAMPAIGN      CLEAR     75  72  90 NE5       30.18R
DANVILLE       CLEAR     73  71  94 NE5       30.17R
DECATUR        CLEAR     75  72  90 NE6       30.17R
EFFINGHAM      CLEAR     77  74  92 CALM      30.18R
FLORA          CLOUDY    75  70  85 CALM      30.15S
GALESBURG      PTCLDY    68  67  96 CALM      30.17S
JACKSONVILLE   CLEAR     74  71  91 E6        30.15S
LACON          PTCLDY    69  67  94 E6        30.19R
LAWRENCEVILLE  TSTM      75  72  90 SE18G29   30.19R
LITCHFIELD     CLEAR     77  71  81 E3        30.16R
$$


CITY           SKY/WX    TMP DP  RH WIND       PRES   REMARKS
LINCOLN        CLEAR     72  71  95 NE5       30.17S
MACOMB         CLEAR     69  68  97 CALM      30.19R
MATTOON        CLEAR     78  74  87 CALM      30.16R HX  81
MT CARMEL AP   CLOUDY    78  70  76 E14       30.17R THUNDER HX  80
OLNEY-NOBLE AP PTCLDY    73  70  88 NE5       30.16R
PARIS          CLEAR     75  74  97 CALM      30.18R
PEORIA         PTCLDY    71  71 100 NE6       30.18R
PONTIAC        PTCLDY    71  71 100 NE5       30.20S
RANTOUL        PTCLDY    76  73  92 NE7       30.19R
ROBINSON       CLOUDY    75  73  91 S7        30.18R
SPRINGFIELD    CLEAR     75  71  87 E3        30.16S
TAYLORVILLE    CLEAR     74  73  96 CALM      30.16R
$$

...REGIONAL REPORTS...


CITY           SKY/WX    TMP DP  RH WIND       PRES   REMARKS
CHICAGO O`HARE MOCLDY    73  69  87 E6        30.21R
KANKAKEE       CLEAR     71  70  97 CALM      30.21R
MOLINE         CLOUDY    73  69  87 CALM      30.16R
MOUNT STERLING CLEAR     73  70  92 CALM      30.16R
MOUNT VERNON   CLEAR     77  70  78 CALM      30.15S
PITTSFIELD     CLEAR     77  75  93 NE3       30.16S
QUINCY         CLEAR     75  74  96 E6        30.16R
ROCKFORD       CLOUDY    73  68  84 SE5       30.21R
$$


CITY           SKY/WX    TMP DP  RH WIND       PRES   REMARKS
BURLINGTON     PTCLDY    74  70  87 NE7       30.18R
CEDAR RAPIDS   MOCLDY    71  69  93 S8        30.17R
DES MOINES     CLOUDY    75  69  81 E6        30.14R
KIRKSVILLE     PTCLDY    74  69  85 SE6       30.16R
OTTUMWA        CLOUDY    73  69  87 E17G28    30.18R
ST LOUIS       PTCLDY    85  72  65 E7        30.14R HX  91
$$


CITY           SKY/WX    TMP DP  RH WIND       PRES   REMARKS
TERRE HAUTE    CLEAR     77  72  84 NE5       30.17R
EVANSVILLE     PTCLDY    80  76  87 E7        30.15R HX  86
INDIANAPOLIS   PTCLDY    76  69  79 SE15      30.20R
LAFAYETTE      CLEAR     71  68  90 NE7       30.20R
MADISON        CLOUDY    71  67  87 CALM      30.20R
MILWAUKEE      PTCLDY    70  66  87 CALM      30.21S
$$






USA.gov is the U.S. government's official web portal to all federal, state and local government web resources and services.